Starlink 34012

operational
NORAD ID: 63926 Int'l Des: 2025-098 Owner: SPXS Country: US Constellation: starlink
LEOCIRCULAR

关于 Starlink 34012

正在加载描述...

实时位置

正在加载3D地球...

即将过境

高度历史

Altitude vs Time

uPlot chart will show altitude changes over time

两行轨道根数

1 63926U 25098A 26095.48911983 -.00697801 00000-0 -65572-1 0 9994
2 63926 70.0022 207.0112 0003989 89.5819 270.5797 14.96652153 50601
Epoch: Apr 5, 2026 • Age: 11 hours

当前状态

高度 583.2 km
速度 7.57 km/s
星下点 43.26°N, 43.81°E
发射日期 May 13, 2025
运行时间 0.8 years
类型 internet

技术详情

分类 Payload
质量 575.00 kg
干质量 530.00 kg
总质量 575.00 kg
长度 0.30 m
直径 4.10 m
跨度 29.00 m
形状 Box + pan
制造商 SPXS
平台类型 Starlink V2MO
阶段状态 In Orbit
所有者/国家 SPXS/US

大型星座

Loading constellations...